Weather in Vinnitskoe

Russia / Republic of Crimea     44°58′54″N   33°44′06″E
temp.,
°C
wind,
m/s
gust,
m/s
humid.,
%
clouds,
%
prec.,
mm/h
press.,
hPa
HPBL,
m
28 september, tue
tue2800:00+11ne36600 0.0 1019109
03:00+10ne33680 0.0 101959
06:00+9ene33720 0.0 102052
09:00+13ne34580 0.0 1020343
12:00+17ne554638 0.0 10201746
15:00+17ne544269 0.0 10201392
18:00+15ne46463 0.0 1021226
21:00+12ene47615 0.0 1022133
29 september, wed
wed2900:00+11ene46714 0.0 102396
03:00+10ne467730 0.0 1023110
06:00+10ene488275 0.0 1023163
09:00+15ne710635 0.0 1023864
12:00+18ene894676 0.0 10241908
15:00+17ene795085 0.0 10241707
18:00+15ne795812 0.0 1025952
21:00+11ne511765 0.0 1026360
30 september, thu
thu3000:00+10ene411802 0.0 1026339
03:00+9ne411815 0.0 1026275
06:00+9ne49795 0.0 1027208
09:00+13ene710503 0.0 10271291
12:00+16ene89404 0.0 10271556
15:00+16ene910381 0.0 10271483
18:00+13ene811480 0.0 1027963
21:00+10ene612610 0.0 1028493
1 october, fri
fri100:00+9ene49690 0.0 1029192
03:00+8ene410650 0.0 1028215
06:00+8ene512650 0.0 1028287
09:00+12ene812500 0.0 10291112
12:00+16ene911380 0.0 10281447
15:00+16ene1011360 0.0 10281467
18:00+13ene913490 0.0 10281047
21:00+11ene613560 0.0 1028477
2 october, sat
sat200:00+10ene510570 0.0 1027292
03:00+10ene715590 0.0 1026531
06:00+10ene716610 0.0 1025612
09:00+13ene915550 0.0 1025906
12:00+18ene911371 0.0 10241206
15:00+19ene911340 0.0 10231403
18:00+16ene812460 0.0 1023731
21:00+13ene814550 0.0 1023425